Location: Unspecified
(0.0000°N, 0.0000°E)
Time: 22:57:14
(UTC+00:00)

STARLINK-34094 - Visible Passes

Search period start: 20 June 2025 00:00
Search period end: 30 June 2025 00:00
Orbit: 440 x 448 km, 43.0° (Epoch: 20 June)

Date Brightness Start Highest point End Pass type
(mag) Time Alt. Az. Time Alt. Az. Time Alt. Az.
21 Jun 3.7 19:03:23 10° SSW 19:06:40 35° SE 19:07:31 30° ESE visible
22 Jun 4.3 18:23:17 10° S 18:26:12 24° SE 18:29:05 10° E visible
22 Jun 6.0 20:01:41 10° W 20:04:06 17° NW 20:05:47 13° NNW visible
23 Jun 5.5 19:20:36 10° WSW 19:23:33 25° NW 19:26:30 10° NNE visible
24 Jun 6.5 05:23:29 10° NNE 05:25:20 14° NE 05:27:12 10° ENE visible
24 Jun 4.9 18:39:40 10° WSW 18:42:57 37° NW 18:46:15 10° NNE visible
27 Jun 3.5 04:57:43 10° NW 05:01:12 68° NE 05:04:43 10° SE visible
28 Jun 4.3 04:19:40 36° N 04:20:24 42° NE 04:23:46 10° ESE visible
29 Jun 4.9 05:17:07 15° SW 05:17:25 15° SW 05:19:31 10° S visible
